User: anonymous   Login
Location: Alfortville
(48.8058°N, 2.4204°E)
Time: 11:46:41
(UTC+00:00)
Language:

Lacrosse 4 Rocket - Orbit

View from above orbital plane
View from above orbital plane
View from above satellite
View from above satellite

Ground track
Ground track

The orbit data is extracted from the following two-line orbital elements,

1 26474U 00047B   22017.93474712  .00000853  00000-0  83264-4 0  9996
2 26474  67.9938 280.2120 0060869 279.3717  80.0547 14.96382758165927
Epoch (UTC): 17 January 2022 22:26:02
Eccentricity: 0.0060869
inclination: 67.9938°
perigee height: 536 km
apogee height: 620 km
right ascension of ascending node: 280.2120°
argument of perigee: 279.3717°
revolutions per day: 14.96382758
mean anomaly at epoch: 80.0547°
orbit number at epoch: 16592

The dashed part of the orbit path shows where the satellite is in the earth's shadow,  

DLR